DELTA 1 DEB, 3974

Orbit data source: Space-Track

DELTA 1 DEB, 3974 is space debris in SSO originally from a launch on Fri, 16 Aug 1968 UTC launched from the Air Force Western Test Range (AFWTR). Debris objects in space refer to the collection of defunct objects orbiting the Earth. Examples of debris include non-operational satellites, rocket bodies, and fragments generated from explosions, collisions, or faulty payload assembly.

Loading next visibility...
Identifier
3974, 1968-069E
Orbit
SSO
Country
Flag of USUS
Related business
Manufacturer
Unknown
Mission
Spacecraft
Bus & Motor
Unknown
Mass
Unknown
Launch date (UTC)
1968-08-16 (57 years ago)
Launch vehicle
Unknown
Launch site
Air Force Western Test Range (AFWTR)
Object type
Payload
Rocket body
Debris
Shape & HBR
Unknown shape, 0.1 m
Radar Cross Section
Small (<0.1 m²)

Expand to show TLE details & history
Last TLE update: 3 days ago

TLE from 3 days ago
0 DELTA 1 DEB
1 03974U 68069E   25301.02371137 -.00000023  00000-0  14190-3 0  9991
2 03974 101.8535  32.3954 0035100 276.2787 270.0507 12.53275935618167
Epoch: 2025-10-28T00:34Z
TLE epoch observation values (Epoch: 2025-10-28T00:34:08.662Z)
Latitude
-5.93763°
Longitude
165.9975°
Altitude
1,454.435 km
Speed
7.135 km/s
True Right ascension
14h 04m 36s
True Declination
-5° 54' 20"
Sunlit
Object was in daylight at epoch
Visualization orbit readout
Latitude
Unknown
Longitude
Unknown
Altitude
Unknown
Speed
Unknown
Apparent Right ascension
Unknown
Apparent Declination
Unknown
Sunlit
N/A
Visualization observer readout
Local Sidereal Time
05:04:32
Azimuth
Unknown
Elevation
Unknown
Doppler factor
Unknown
Orbital elements
Apogee altitude
1,475.842 km
Perigee altitude
1,420.9 km
Semi-major axis
7,826.508 km
Eccentricity
0.00351
Inclination
101.8535°
RAAN
32.3954°
Arg. of periapsis
276.2787°
True anomaly
269.64849°
Mean anomaly
270.0507°
Eccentric anomaly
269.84959°
Mean motion
3.13466 °/min
Orbital period
114.84 mins
BSTAR
0.0001419
Loading maneuver chart data...
Computing Atmospheric mass density...
Loading historical data...
Loading historical data...
Loading historical data...
Loading historical data...
Loading historical data...
Loading historical data...
Loading historical data...

Documentation

Showing up to 5 results
|